FENGYUN 1C DEB

Satellite information

Favourite Embed

Satellite Type and Status

DEBRISIN ORBIT

Key statistics

Satellite FENGYUN 1C DEB at a glance.

Uptime

9495

Days in orbit

Revolutions

≈ 13.9

Per day

Orbit

SSO

Sun Synchronous Orbit

Inclination

98.6

Latest

Satellite identification and parameters

Extended collection of information and parameters for FENGYUN 1C DEB.

Object identification

Identified? True

Debris? True

Object name: FENGYUN 1C DEB

International designator: 1999-025AHF

Object number (NORAD): 30493

Object ID (CCSDS): 30493

Country: PEOPLES REPUBLIC OF CHINA (PRC)

Current information (Y/N): Y

RCS size: SMALL

Orbital parameters

Period: 103.475 minutes

Inclination: 98.5918 deg

SMA: 7301.036 km

Apoapsis: 1055.535 km

Periapsis: 790.267 km

RAAN: 333.879 deg

Eccentricy: 0.0181665

Argument of periapsis: 101.1536 deg

Mean anomaly: 323.1571 deg

Mean motion: 13.91637238 rev/day

Mean motion (dot): 0.00003786 rev/day2

B* drag term: 0.0026343 1/REarth

Two-line elements (TLE)

Creation date: May 8, 2025, 3:01 a.m.

Reference frame: TEME

Reference center: EARTH

Epoch: May 7, 2025, 12:38 p.m. UTC

TLE line 0: 0 FENGYUN 1C DEB

TLE line 1: 1 30493U 99025AHF 25127.52639083 .00003786 00000-0 26343-2 0 9991

TLE line 2: 2 30493 98.5918 333.8790 0181665 101.1536 323.1571 13.91637238920453

Live tracking on map

Real-time ground track for satellite FENGYUN 1C DEB.

In-orbit conjunctions

A list of the most updated potential collisions computed for object FENGYUN 1C DEB.

Target Orbit TCA Probability of collision Miss distance Type
FENGYUN 1C DEB SSO 2024-11-12 12:37:54 0.0003670151 501.0 (m) DEBRIS
CZ-6A DEB LEO 2024-11-09 05:20:13 0.0002030874 451.0 (m) DEBRIS
COSMOS 1365 LEO 2024-10-12 19:53:18 0.0001279835 252.0 (m) PAYLOAD
COSMOS 1365 LEO 2024-10-12 18:09:37 0.0008328132 155.0 (m) PAYLOAD
COSMOS 1365 LEO 2024-10-12 16:25:56 0.0002718361 340.0 (m) PAYLOAD

Associated space launch

Chinese polar orbiting meteorological satellite

FENGYUN 1C DEB was lifted into orbit during the mission ‘Long March 4B | Feng Yun 1C’, on board a Long March 4B space rocket.

The launch took place on May 10, 1999, 1:33 a.m. from Launch Complex 7.

For more information about the launch, click the button.

Launch to space Long March 4B | Feng Yun 1C
Long March 4B | Feng Yun 1C

Agency: N/A

Status: Launch Successful

Launch date: May 10, 1999, 1:33 a.m. UTC

Rocket: Long March 4B

Launch pad: Launch Complex 7

Location: Taiyuan Satellite Launch Center, People's Republic of China

...

Latest news about this satellite

There are no fresh news available about this satellite. Check back as we update our databases every day.


Newsletter sign-up

Weekly statistics, charts and insights to help you stay on top of the space industry.